Starlink 32873

operational
NORAD ID: 62857 Int'l Des: 2025-022 Owner: SPXS Country: US Constellation: starlink
LEOCIRCULAR

关于 Starlink 32873

正在加载描述...

实时位置

正在加载3D地球...

即将过境

高度历史

Altitude vs Time

uPlot chart will show altitude changes over time

两行轨道根数

1 62857U 25022D 25308.26711927 .00034435 00000-0 11688-2 0 9997
2 62857 53.1608 352.4575 0001280 76.3091 283.8052 15.30216398 42698
Epoch: Nov 4, 2025 • Age: 9 hours

当前状态

高度 476.3 km
速度 7.63 km/s
星下点 -3.21°S, 67.12°E
发射日期 Feb 2, 2025
运行时间 0.7 years
类型 internet

技术详情

分类 Payload
质量 730.00 kg
干质量 700.00 kg
总质量 730.00 kg
长度 0.30 m
直径 4.10 m
跨度 29.00 m
形状 Box + pan
制造商 SPXS
平台类型 Starlink V2M
阶段状态 In Orbit
所有者/国家 SPXS/US

大型星座

Loading constellations...